Observations
| Time | Sensor | AQI | SAQ | Temp °C | Hum % | Pres Pa | CO μg/m³ | H₂S μg/m³ | NO μg/m³ | NO₂ μg/m³ | O₃ μg/m³ | SO₂ μg/m³ | CO₂e PPM | VOC PPM | PM1 μg/m³ | PM2.5 μg/m³ | PM4 μg/m³ | PM10 μg/m³ | TPS µm |
|---|---|---|---|---|---|---|---|---|---|---|---|---|---|---|---|---|---|---|---|
| Thursday 13 August 2026 | |||||||||||||||||||
| 10:03 | Trim Patrick St | 1 | 29 | 53 | 70,474 | 0 | 0 | 0.88 | 11.08 | 52.15 | 12.62 | 2 | 6.24 | 6.86 | |||||
| 10:02 | Trim Patrick St | 1 | 29 | 53 | 70,484 | 0 | 0 | 0.88 | 10.74 | 48.63 | 12.65 | 2.86 | 7.75 | 8.53 | |||||
| 10:01 | Trim Patrick St | 1 | 29.1 | 53 | 70,526 | 0 | 0 | 0.92 | 13.01 | 53.88 | 13.15 | 2.86 | 6.99 | 7.69 | |||||
| 10:01 | Trim Market St | 2 | 28.2 | 56 | 57,725 | 0 | 0 | 0.76 | 13.7 | 49.61 | 0 | 0 | 2.71 | 3.26 | |||||
| 10:00 | Trim Patrick St | 1 | 29.1 | 53 | 70,586 | 0 | 0 | 0.91 | 12.99 | 53.95 | 12.9 | 3.71 | 8.5 | 9.34 | |||||
| 09:59 | Trim Patrick St | 1 | 29.1 | 53 | 70,635 | 0 | 0 | 0.87 | 12.43 | 51.46 | 12.97 | 2.86 | 7.75 | 8.53 | |||||
| 09:59 | Trim Market St | 2 | 28.2 | 56 | 57,708 | 0 | 0 | 0.71 | 13.66 | 56.28 | 0 | 1.43 | 3.71 | 4.69 | |||||
| 09:58 | Trim Patrick St | 1 | 29.1 | 53 | 70,728 | 0 | 0 | 0.91 | 12.43 | 53.15 | 12.6 | 2.86 | 6.97 | 7.67 | |||||
| 09:57 | Trim Patrick St | 1 | 29.1 | 53 | 70,888 | 0 | 0 | 0.91 | 11.73 | 53.07 | 12.9 | 2 | 6.99 | 7.69 | |||||
| 09:56 | Trim Patrick St | 1 | 29.1 | 53 | 71,100 | 0 | 0 | 0.87 | 12.47 | 56.64 | 12.8 | 2 | 6.22 | 6.85 | |||||
| 09:55 | Trim Patrick St | 1 | 29 | 53 | 71,346 | 0 | 0 | 0.92 | 11.47 | 41.52 | 12.14 | 2.86 | 7.71 | 8.48 | |||||
| 09:54 | Trim Patrick St | 1 | 28.9 | 54 | 71,646 | 0 | 0 | 0.94 | 12.95 | 54.13 | 12.61 | 2.86 | 7.67 | 8.44 | |||||
| 09:53 | Trim Patrick St | 1 | 28.8 | 54 | 71,980 | 0 | 0 | 0.91 | 13.72 | 55.89 | 12.92 | 2.86 | 7.64 | 8.41 | |||||
| 09:53 | Trim Market St | 2 | 28 | 58 | 57,632 | 0 | 0 | 0.73 | 13.87 | 56.65 | 0 | 0.71 | 2.63 | 3.33 | |||||
| 09:52 | Trim Patrick St | 1 | 28.7 | 55 | 72,240 | 0 | 0 | 0.88 | 13.58 | 59.57 | 12.64 | 4.57 | 8.38 | 9.22 | |||||
| 09:52 | Trim Market St | 2 | 27.9 | 58 | 57,613 | 0 | 0 | 0.71 | 13.91 | 62.11 | 0 | 0.71 | 3.12 | 4.03 | |||||
| 09:51 | Trim Patrick St | 1 | 28.6 | 54 | 72,471 | 0 | 0 | 0.89 | 13.35 | 58.22 | 12.51 | 4.57 | 9.14 | 10.06 | |||||
| 09:50 | Trim Patrick St | 1 | 28.5 | 55 | 72,715 | 0 | 0 | 0.85 | 13.6 | 56.3 | 12.37 | 3.71 | 7.62 | 8.38 | |||||
| 09:49 | Trim Patrick St | 1 | 28.4 | 55 | 72,923 | 0 | 0 | 0.87 | 13.62 | 57.06 | 12.42 | 2.86 | 8.36 | 9.19 | |||||
| 09:49 | Trim Market St | 2 | 27.6 | 58 | 57,572 | 0 | 6.41 | 0.68 | 22.21 | 73.8 | 0 | 2.14 | 4.61 | 6.14 | |||||